Regional Weather Roundup
Issued by NWS

Home | Current Version | Previous Version | Graphics & Text | Print | Product List | Glossary On
Versions: 1 2 3 4 5 6 7 8 9 10 11 12 13 14 15 16 17 18 19 20 21 22 23 24 25 26 27 28 29 30 31 32 33 34 35 36 37 38 39 40 41 42 43 44 45 46 47 48 49 50
000
ASUS45 KPSR 280800
RWRAZ

ARIZONA HOURLY REGIONAL WEATHER ROUNDUP
NATIONAL WEATHER SERVICE PHOENIX AZ
100 AM MST FRI AUG 28 2015

NOTE: FAIR INDICATES FEW OR NO CLOUDS BELOW 12,000 FEET WITH NO
SIGNIFICANT WEATHER AND/OR OBSTRUCTIONS TO VISIBILITY.

AZZ001>003-036-280900-
NORTHWEST ARIZONA

CITY           SKY/WX    TMP DP  RH WIND       PRES   REMARKS
KINGMAN        PTCLDY    77  54  44 S9        30.09F
$$

AZZ004>008-015-016-018-280900-
NORTH CENTRAL ARIZONA

CITY           SKY/WX    TMP DP  RH WIND       PRES   REMARKS
GRAND CANYON   PTCLDY    52  44  74 CALM      30.35S
WILLIAMS       PTCLDY    57  54  88 S6        30.40F
PRESCOTT       PTCLDY    65  59  81 SW3       30.23S
FLAGSTAFF      NOT AVBL
PAYSON         CLOUDY    64  61  88 CALM      30.24F
PAGE           CLEAR     76  52  43 SW3       30.14S
$$

AZZ009>014-017-280900-
NORTHEAST ARIZONA

CITY           SKY/WX    TMP DP  RH WIND       PRES   REMARKS
WINSLOW        NOT AVBL
SAINT JOHNS    PTCLDY    61  58  90 CALM      30.26S
WINDOW ROCK    PTCLDY    56  50  80 CALM      30.33S
SHOW LOW       PTCLDY    57  50  77 S8        30.32S
$$

AZZ023-280900-
GREATER PHOENIX AREA

CITY           SKY/WX    TMP DP  RH WIND       PRES   REMARKS
PHOENIX        MOCLDY    87  69  54 E6        29.91F
LUKE AFB       PTCLDY    82  75  79 NW5       29.91F
DEER VALLEY    PTCLDY    86  60  41 E5        29.94F
SCOTTSDALE     PTCLDY    85  62  46 CALM      29.97S
$$

AZZ027-028-280900-
SOUTHWEST MARICOPA COUNTY AND PINAL COUNTY

CITY           SKY/WX    TMP DP  RH WIND       PRES   REMARKS
CASA GRANDE    PTCLDY    82  57  42 CALM      29.94S
GILA BEND      FAIR      88  62  41 VRB1      29.89S
$$

AZZ503-504-507>509-280900-
SOUTHEAST ARIZONA

CITY           SKY/WX    TMP DP  RH WIND       PRES   REMARKS
TUCSON         CLOUDY    80  61  52 E5        30.03S
DAVIS-MONTHAN  PTCLDY    78  62  56 E5        30.01F
NOGALES        CLOUDY    71  58  63 NW5       30.11F
SIERRA VISTA   CLOUDY    74  59  61 S8        30.15F
SAFFORD        CLOUDY    71  67  87 NE6       30.06F
$$

AZZ020-021-025-026-031-280900-
SOUTHWEST ARIZONA

CITY           SKY/WX    TMP DP  RH WIND       PRES   REMARKS
YUMA           PTCLDY    93  66  40 SW6       29.83S
$$

CAZ031-033-041-043-047-048-061-280900-
SOUTHERN CALIFORNIA

CITY           SKY/WX    TMP DP  RH WIND       PRES   REMARKS
DOWNTOWN L.A.  CLEAR     75  64  68 CALM      29.90F
L.A. AIRPORT   CLEAR     75  66  73 VRB3      29.91S
SAN DIEGO      CLEAR     76  68  76 NW3       29.91F
BURBANK        CLEAR     78  60  53 E3        29.92S
ONTARIO        CLEAR     78  57  48 CALM      29.93F
RIVERSIDE      CLEAR     80  57  45 CALM      29.94S
PALM SPRINGS   CLEAR     94  56  27 NE5       29.86R
EL CENTRO NAS  CLEAR     91  54  28 W6        29.81S
IMPERIAL       CLEAR     93  55  27 W6        29.79S
BLYTHE         CLEAR     92  64  39 E5        29.84R
$$

NVZ020-UTZ003-280900-
SOUTHERN NEVADA-UTAH

CITY           SKY/WX    TMP DP  RH WIND       PRES   REMARKS
LAS VEGAS      NOT AVBL
SALT LAKE CITY CLEAR     71  43  36 SE8       30.17R
$$

NMZ009-TXZ055-280900-
NEW MEXICO-WEST TEXAS

CITY           SKY/WX    TMP DP  RH WIND       PRES   REMARKS
ALBUQUERQUE    MOCLDY    69  54  58 SE8       30.21R
EL PASO        PTCLDY    77  56  48 E3        30.06S
$$


........................KEY........................
SKY/WX - SKY CONDITION/WEATHER
TMP    - TEMPERATURE IN FAHRENHEIT
DP     - DEW POINT IN FAHRENHEIT
RH     - RELATIVE HUMIDITY IN PERCENT
WIND   - DIRECTION AND SPEED IN MILES PER HOUR (MPH)
VRB    - VARIABLE WIND DIRECTION
PRES   - MEAN SEA LEVEL PRESSURE IN INCHES OF MERCURY
         F - FALLING PRESSURE   R - RISING PRESSURE
         S - STEADY PRESSURE
VSB    - VISIBILITY IN MILES
HX     - HEAT INDEX IN FAHRENHEIT
WCI    - WIND CHILL INDEX IN FAHRENHEIT
TC     - TEMPERATURE IN CELSIUS WHICH IS ALSO KNOWN AS
         TEMPERATURE IN CENTIGRADE
AFB    - AIR FORCE BASE
         LUKE AFB IS LUKE AIR FORCE BASE
         DAVIS-MONTHAN IS DAVIS-MONTHAN AIR FORCE BASE
NAS    - NAVAL AIR STATION
         EL CENTRO NAS IS EL CENTRO NAVAL AIR STATION
N/A    - NOT AVAILABLE



USA.gov is the U.S. government's official web portal to all federal, state and local government web resources and services.